When you browse on this site, cookies collect data to enhance your experience and personalize the content and advertising you see.
Visit our Privacy Policy to learn more. By continuing to use the site, you agree to this use of cookies and data.
  • In France
  • List of Countries
  • For 7 days
  • Water Temperature
  • Weather Map
  • Weather Widgets
  • user-avatar
    Login

    Hourly Weather Duesseldorf

    Today, 16 September, Monday

    Time Temperature Precipitation Wind Pressure Humidity
    00:00 +16°C° 0 mm 0 mps 763 mmHg 84%
    01:00 +16°C° 0 mm 0 mps 763 mmHg 84%
    02:00 +15°C° 0 mm 0 mps 763 mmHg 85%
    03:00 +15°C° 0 mm 0 mps 762 mmHg 85%
    04:00 +15°C° 0 mm 0 mps 762 mmHg 85%
    05:00 +16°C° 0 mm 0 mps 762 mmHg 84%
    06:00 +18°C° 0 mm 1 mps 762 mmHg 84%
    07:00 +18°C° 0 mm 1 mps 762 mmHg 82%
    08:00 +18°C° 0 mm 1 mps 762 mmHg 80%
    09:00 +19°C° 0 mm 1 mps 762 mmHg 78%
    10:00 +19°C° 0 mm 1 mps 762 mmHg 76%
    11:00 +18°C° 0 mm 2 mps 762 mmHg 74%
    12:00 +18°C° 0 mm 2 mps 761 mmHg 72%
    13:00 +18°C° 0 mm 2 mps 761 mmHg 74%
    14:00 +18°C° 0 mm 2 mps 761 mmHg 76%
    15:00 +18°C° 0 mm 2 mps 761 mmHg 78%
    16:00 +17°C° 0.1 mm 2 mps 761 mmHg 81%
    17:00 +17°C° 0.1 mm 2 mps 761 mmHg 85%
    18:00 +16°C° 0.1 mm 2 mps 761 mmHg 88%
    19:00 +15°C° 0 mm 2 mps 761 mmHg 88%
    20:00 +15°C° 0 mm 2 mps 762 mmHg 87%
    21:00 +14°C° 0 mm 2 mps 762 mmHg 87%
    22:00 +13°C° 0 mm 2 mps 762 mmHg 87%
    23:00 +13°C° 0 mm 2 mps 762 mmHg 87%

    Tomorrow, 17 September, Tuesday

    Time Temperature Precipitation Wind Pressure Humidity
    00:00 +12°C° 0 mm 2 mps 763 mmHg 87%
    01:00 +12°C° 0 mm 2 mps 762 mmHg 86%
    02:00 +12°C° 0 mm 2 mps 762 mmHg 86%
    03:00 +10°C° 0 mm 2 mps 762 mmHg 85%
    04:00 +10°C° 0 mm 2 mps 762 mmHg 85%
    05:00 +10°C° 0 mm 2 mps 762 mmHg 86%
    06:00 +10°C° 0 mm 2 mps 763 mmHg 86%
    07:00 +13°C° 0 mm 2 mps 763 mmHg 78%
    08:00 +13°C° 0 mm 3 mps 763 mmHg 70%
    09:00 +16°C° 0 mm 3 mps 763 mmHg 62%
    10:00 +15°C° 0 mm 4 mps 763 mmHg 61%
    11:00 +15°C° 0 mm 4 mps 763 mmHg 60%
    12:00 +16°C° 0 mm 5 mps 762 mmHg 58%
    13:00 +16°C° 0 mm 5 mps 762 mmHg 58%
    14:00 +16°C° 0 mm 5 mps 763 mmHg 58%
    15:00 +15°C° 0 mm 5 mps 763 mmHg 58%
    16:00 +14°C° 0 mm 5 mps 763 mmHg 59%
    17:00 +13°C° 0 mm 4 mps 763 mmHg 60%
    18:00 +12°C° 0 mm 4 mps 764 mmHg 61%
    19:00 +11°C° 0 mm 3 mps 764 mmHg 64%
    20:00 +11°C° 0 mm 3 mps 765 mmHg 66%
    21:00 +10°C° 0 mm 2 mps 765 mmHg 69%
    22:00 +9°C° 0 mm 2 mps 766 mmHg 71%
    23:00 +9°C° 0 mm 2 mps 766 mmHg 73%

    Day after tomorrow, 18 September, Wednesday

    Time Temperature Precipitation Wind Pressure Humidity
    00:00 +10°C° 0 mm 1 mps 766 mmHg 76%
    01:00 +9°C° 0 mm 1 mps 766 mmHg 78%
    02:00 +9°C° 0 mm 1 mps 766 mmHg 79%
    03:00 +9°C° 0 mm 1 mps 766 mmHg 81%
    04:00 +9°C° 0 mm 1 mps 766 mmHg 81%
    05:00 +9°C° 0 mm 1 mps 767 mmHg 81%
    06:00 +9°C° 0 mm 1 mps 767 mmHg 81%
    07:00 +11°C° 0 mm 1 mps 767 mmHg 73%
    08:00 +13°C° 0 mm 1 mps 767 mmHg 65%
    09:00 +15°C° 0 mm 1 mps 767 mmHg 56%
    10:00 +15°C° 0 mm 2 mps 767 mmHg 54%
    11:00 +16°C° 0 mm 2 mps 767 mmHg 52%
    12:00 +16°C° 0 mm 2 mps 767 mmHg 49%
    13:00 +16°C° 0 mm 2 mps 767 mmHg 50%
    14:00 +16°C° 0 mm 3 mps 766 mmHg 50%
    15:00 +17°C° 0 mm 3 mps 766 mmHg 51%
    16:00 +14°C° 0 mm 3 mps 766 mmHg 56%
    17:00 +13°C° 0 mm 3 mps 766 mmHg 61%
    18:00 +13°C° 0 mm 2 mps 766 mmHg 66%
    19:00 +13°C° 0 mm 2 mps 767 mmHg 69%
    20:00 +12°C° 0 mm 2 mps 767 mmHg 71%
    21:00 +10°C° 0 mm 2 mps 768 mmHg 74%
    22:00 +10°C° 0 mm 2 mps 768 mmHg 76%
    23:00 +10°C° 0 mm 2 mps 768 mmHg 79%

    19 September, Thursday

    Time Temperature Precipitation Wind Pressure Humidity
    00:00 +10°C° 0 mm 1 mps 768 mmHg 81%
    01:00 +10°C° 0 mm 1 mps 768 mmHg 80%
    02:00 +11°C° 0 mm 1 mps 768 mmHg 79%
    03:00 +10°C° 0 mm 0 mps 768 mmHg 79%
    04:00 +10°C° 0 mm 0 mps 768 mmHg 79%
    05:00 +11°C° 0 mm 1 mps 768 mmHg 79%
    06:00 +11°C° 0 mm 1 mps 768 mmHg 80%
    07:00 +12°C° 0 mm 1 mps 769 mmHg 74%
    08:00 +13°C° 0 mm 1 mps 769 mmHg 68%
    09:00 +15°C° 0 mm 1 mps 769 mmHg 62%
    10:00 +15°C° 0 mm 1 mps 769 mmHg 59%
    11:00 +16°C° 0 mm 2 mps 769 mmHg 56%
    12:00 +17°C° 0 mm 2 mps 769 mmHg 52%
    13:00 +17°C° 0 mm 2 mps 769 mmHg 52%
    14:00 +17°C° 0 mm 2 mps 769 mmHg 52%
    15:00 +17°C° 0 mm 2 mps 768 mmHg 51%
    16:00 +16°C° 0 mm 2 mps 768 mmHg 55%
    17:00 +15°C° 0 mm 2 mps 769 mmHg 59%
    18:00 +14°C° 0 mm 2 mps 769 mmHg 63%
    19:00 +13°C° 0 mm 2 mps 769 mmHg 65%
    20:00 +13°C° 0 mm 1 mps 770 mmHg 66%
    21:00 +12°C° 0 mm 1 mps 770 mmHg 68%
    22:00 +12°C° 0 mm 1 mps 770 mmHg 69%
    23:00 +12°C° 0 mm 1 mps 770 mmHg 70%

    20 September, Friday

    Time Temperature Precipitation Wind Pressure Humidity
    00:00 +11°C° 0 mm 1 mps 770 mmHg 71%
    01:00 +11°C° 0 mm 1 mps 770 mmHg 72%
    02:00 +11°C° 0 mm 1 mps 770 mmHg 72%
    03:00 +10°C° 0 mm 1 mps 770 mmHg 72%
    04:00 +10°C° 0 mm 1 mps 769 mmHg 72%
    05:00 +10°C° 0 mm 1 mps 769 mmHg 73%
    06:00 +10°C° 0 mm 1 mps 769 mmHg 73%
    07:00 +12°C° 0 mm 1 mps 769 mmHg 66%
    08:00 +14°C° 0 mm 2 mps 769 mmHg 58%
    09:00 +15°C° 0 mm 2 mps 770 mmHg 50%
    10:00 +17°C° 0 mm 2 mps 769 mmHg 45%
    11:00 +18°C° 0 mm 2 mps 769 mmHg 41%
    12:00 +19°C° 0 mm 3 mps 768 mmHg 36%
    13:00 +19°C° 0 mm 3 mps 768 mmHg 37%
    14:00 +20°C° 0 mm 3 mps 768 mmHg 37%
    15:00 +20°C° 0 mm 3 mps 767 mmHg 38%
    16:00 +19°C° 0 mm 3 mps 767 mmHg 43%
    17:00 +17°C° 0 mm 3 mps 767 mmHg 49%
    18:00 +16°C° 0 mm 3 mps 767 mmHg 54%
    19:00 +14°C° 0 mm 3 mps 767 mmHg 57%
    20:00 +14°C° 0 mm 3 mps 767 mmHg 60%
    21:00 +13°C° 0 mm 3 mps 768 mmHg 62%
    22:00 +13°C° 0 mm 3 mps 767 mmHg 63%
    23:00 +12°C° 0 mm 3 mps 767 mmHg 63%

    21 September, Saturday

    Time Temperature Precipitation Wind Pressure Humidity
    00:00 +12°C° 0 mm 3 mps 767 mmHg 63%
    01:00 +11°C° 0 mm 3 mps 767 mmHg 63%
    02:00 +11°C° 0 mm 3 mps 766 mmHg 62%
    03:00 +11°C° 0 mm 3 mps 766 mmHg 61%
    04:00 +11°C° 0 mm 3 mps 766 mmHg 61%
    05:00 +11°C° 0 mm 3 mps 766 mmHg 61%
    06:00 +11°C° 0 mm 3 mps 765 mmHg 61%
    07:00 +12°C° 0 mm 3 mps 765 mmHg 55%
    08:00 +14°C° 0 mm 4 mps 765 mmHg 50%
    09:00 +17°C° 0 mm 4 mps 765 mmHg 44%
    10:00 +19°C° 0 mm 5 mps 765 mmHg 41%
    11:00 +20°C° 0 mm 5 mps 764 mmHg 38%
    12:00 +22°C° 0 mm 5 mps 764 mmHg 35%
    13:00 +22°C° 0 mm 5 mps 763 mmHg 34%
    14:00 +23°C° 0 mm 5 mps 763 mmHg 34%
    15:00 +23°C° 0 mm 5 mps 762 mmHg 33%
    16:00 +21°C° 0 mm 4 mps 762 mmHg 37%
    17:00 +20°C° 0 mm 4 mps 762 mmHg 41%
    18:00 +18°C° 0 mm 3 mps 762 mmHg 45%
    19:00 +18°C° 0 mm 4 mps 762 mmHg 47%
    20:00 +17°C° 0 mm 4 mps 762 mmHg 48%
    21:00 +17°C° 0 mm 4 mps 763 mmHg 50%
    22:00 +15°C° 0 mm 4 mps 762 mmHg 52%
    23:00 +15°C° 0 mm 4 mps 762 mmHg 54%
    Show more